DAL2708 KATL-KPIT

Flight info

Callsign DAL2708
Flight time 1h 10m
Altitude 35000
Route PADGT2 SMTTH Q67 HNN FEWGA7
Aircraft B752/M-SDE2E3FGHIJ3J4J7RWXY/LB1

Departure

Time 2026-05-07 21:56
Airport Hartsfield Jackson Atlanta International Airport (KATL)

Arrival

Time 2026-05-07 23:06
Airport Pittsburgh International Airport (KPIT)
Time Latitude Longitude Altitude Speed Heading
2026-05-07 21:18 33.63897 -84.43976 1037 ft 0 kts 89°
2026-05-07 21:44 33.63897 -84.43982 1037 ft 2 kts 89°
2026-05-07 21:44 33.63896 -84.44002 1037 ft 3 kts 79°
2026-05-07 21:45 33.63890 -84.44025 1037 ft 3 kts 66°
2026-05-07 21:45 33.63880 -84.44046 1037 ft 3 kts 53°
2026-05-07 21:45 33.63873 -84.44056 1037 ft 0 kts 48°
2026-05-07 21:47 33.63879 -84.44052 1037 ft 1 kts 13°
2026-05-07 21:48 33.63901 -84.44052 1037 ft 5 kts
2026-05-07 21:48 33.63946 -84.44052 1037 ft 8 kts 360°
2026-05-07 21:48 33.64013 -84.44052 1037 ft 11 kts 360°
2026-05-07 21:48 33.64102 -84.44052 1037 ft 14 kts 360°
2026-05-07 21:49 33.64207 -84.44052 1037 ft 17 kts 360°
2026-05-07 21:49 33.64328 -84.44054 1037 ft 16 kts 359°
2026-05-07 21:49 33.64426 -84.44003 1037 ft 17 kts 63°
2026-05-07 21:49 33.64447 -84.43851 1037 ft 20 kts 81°
2026-05-07 21:50 33.64462 -84.43671 1037 ft 23 kts 89°
2026-05-07 21:50 33.64462 -84.43465 1037 ft 26 kts 91°
2026-05-07 21:50 33.64463 -84.43243 1037 ft 27 kts 90°
2026-05-07 21:50 33.64462 -84.43008 1037 ft 29 kts 90°
2026-05-07 21:51 33.64467 -84.42762 1037 ft 30 kts 85°
2026-05-07 21:51 33.64472 -84.42507 1037 ft 31 kts 89°
2026-05-07 21:51 33.64475 -84.42278 1037 ft 18 kts 83°
2026-05-07 21:51 33.64525 -84.42153 1037 ft 16 kts 61°
2026-05-07 21:52 33.64546 -84.42026 1037 ft 15 kts 90°
2026-05-07 21:52 33.64546 -84.41901 1037 ft 15 kts 90°
2026-05-07 21:52 33.64546 -84.41782 1037 ft 14 kts 90°
2026-05-07 21:52 33.64546 -84.41668 1037 ft 13 kts 90°
2026-05-07 21:53 33.64546 -84.41556 1037 ft 14 kts 90°
2026-05-07 21:53 33.64546 -84.41426 1037 ft 17 kts 90°
2026-05-07 21:53 33.64547 -84.41273 1037 ft 20 kts 89°
2026-05-07 21:53 33.64546 -84.41098 1037 ft 22 kts 89°
2026-05-07 21:54 33.64547 -84.40902 1037 ft 24 kts 89°
2026-05-07 21:54 33.64574 -84.40725 1037 ft 18 kts 91°
2026-05-07 21:54 33.64581 -84.40607 1037 ft 9 kts 60°
2026-05-07 21:54 33.64634 -84.40580 1037 ft 9 kts
2026-05-07 21:55 33.64673 -84.40601 1037 ft 7 kts 309°
2026-05-07 21:55 33.64681 -84.40673 1037 ft 17 kts 270°
2026-05-07 21:55 33.64682 -84.41035 1037 ft 69 kts 270°
2026-05-07 21:55 33.64682 -84.41796 1037 ft 113 kts 270°
2026-05-07 21:56 33.64683 -84.42890 1038 ft 148 kts 270°
2026-05-07 21:56 33.64658 -84.44199 1220 ft 164 kts 270°
2026-05-07 21:56 33.64698 -84.45595 1663 ft 168 kts 281°
2026-05-07 21:56 33.65035 -84.46941 2201 ft 167 kts 294°
2026-05-07 21:57 33.65514 -84.48191 2765 ft 168 kts 298°
2026-05-07 21:57 33.66051 -84.49481 3129 ft 178 kts 295°
2026-05-07 21:57 33.66588 -84.50881 3464 ft 192 kts 293°
2026-05-07 21:57 33.67145 -84.52405 3844 ft 206 kts 292°
2026-05-07 21:58 33.67747 -84.54029 4259 ft 219 kts 293°
2026-05-07 21:58 33.68458 -84.55696 4640 ft 234 kts 304°
2026-05-07 21:58 33.69731 -84.56992 5140 ft 245 kts 323°
2026-05-07 21:58 33.71266 -84.57983 5580 ft 258 kts 335°
2026-05-07 21:59 33.73037 -84.58345 6283 ft 262 kts 353°
2026-05-07 21:59 33.74885 -84.58264 6803 ft 269 kts 358°
2026-05-07 21:59 33.76746 -84.58129 7292 ft 274 kts 357°
2026-05-07 21:59 33.78663 -84.58070 7812 ft 277 kts 355°
2026-05-07 22:00 33.80622 -84.58039 8355 ft 281 kts 357°
2026-05-07 22:00 33.82542 -84.57677 8967 ft 286 kts
2026-05-07 22:00 33.84468 -84.56974 9470 ft 293 kts 12°
2026-05-07 22:00 33.86416 -84.56165 9939 ft 300 kts 12°
2026-05-07 22:01 33.88445 -84.55369 10236 ft 313 kts 10°
2026-05-07 22:01 33.90571 -84.54588 10521 ft 326 kts
2026-05-07 22:01 33.92788 -84.53787 10805 ft 340 kts
2026-05-07 22:01 33.95131 -84.52934 11090 ft 354 kts 10°
2026-05-07 22:02 33.97507 -84.52060 11356 ft 368 kts 10°
2026-05-07 22:02 33.99998 -84.51140 11635 ft 380 kts 10°
2026-05-07 22:02 34.02552 -84.50192 12126 ft 386 kts 10°
2026-05-07 22:02 34.05128 -84.49234 12683 ft 390 kts
2026-05-07 22:03 34.07734 -84.48266 13258 ft 394 kts
2026-05-07 22:03 34.10374 -84.47289 13827 ft 398 kts
2026-05-07 22:03 34.13034 -84.46305 14398 ft 402 kts
2026-05-07 22:03 34.15725 -84.45310 14956 ft 407 kts
2026-05-07 22:04 34.18440 -84.44304 15546 ft 411 kts
2026-05-07 22:04 34.21195 -84.43283 16186 ft 416 kts
2026-05-07 22:04 34.23971 -84.42252 16809 ft 420 kts
2026-05-07 22:04 34.26783 -84.41208 17415 ft 425 kts
2026-05-07 22:05 34.29624 -84.40165 18004 ft 428 kts
2026-05-07 22:05 34.32518 -84.39302 18511 ft 429 kts
2026-05-07 22:05 34.35444 -84.38605 19135 ft 429 kts 359°
2026-05-07 22:05 34.38393 -84.37958 19768 ft 432 kts 359°
2026-05-07 22:06 34.41361 -84.37298 20370 ft 435 kts 359°
2026-05-07 22:06 34.44347 -84.36609 20926 ft 439 kts 359°
2026-05-07 22:06 34.47361 -84.35891 21448 ft 443 kts 360°
2026-05-07 22:06 34.50405 -84.35154 21946 ft 448 kts 360°
2026-05-07 22:07 34.53473 -84.34408 22431 ft 451 kts 360°
2026-05-07 22:07 34.56566 -84.33656 22907 ft 455 kts 359°
2026-05-07 22:07 34.59676 -84.32901 23363 ft 458 kts 359°
2026-05-07 22:07 34.62817 -84.32140 23814 ft 462 kts 359°
2026-05-07 22:08 34.65981 -84.31375 24248 ft 465 kts 359°
2026-05-07 22:08 34.69166 -84.30604 24656 ft 469 kts 359°
2026-05-07 22:08 34.72345 -84.29833 25083 ft 473 kts 359°
2026-05-07 22:08 34.75581 -84.29048 25523 ft 476 kts 359°
2026-05-07 22:09 34.78839 -84.28254 25988 ft 478 kts 359°
2026-05-07 22:09 34.82117 -84.27456 26392 ft 481 kts 358°
2026-05-07 22:09 34.85413 -84.26655 26773 ft 485 kts 358°
2026-05-07 22:09 34.88732 -84.25848 27162 ft 488 kts 358°
2026-05-07 22:10 34.92069 -84.25034 27543 ft 491 kts 358°
2026-05-07 22:10 34.95426 -84.24215 27923 ft 493 kts 358°
2026-05-07 22:10 34.98802 -84.23390 28286 ft 496 kts 358°
2026-05-07 22:10 35.02192 -84.22562 28636 ft 499 kts 358°
2026-05-07 22:11 35.05609 -84.21726 28970 ft 502 kts 357°
2026-05-07 22:11 35.09040 -84.20885 29315 ft 504 kts 357°
2026-05-07 22:11 35.12486 -84.20039 29695 ft 505 kts 357°
2026-05-07 22:11 35.15882 -84.19203 30096 ft 505 kts 357°
2026-05-07 22:12 35.19379 -84.18342 30488 ft 506 kts 356°
2026-05-07 22:12 35.22783 -84.17505 30891 ft 505 kts 356°
2026-05-07 22:12 35.26228 -84.16655 31328 ft 505 kts 356°
2026-05-07 22:12 35.29665 -84.15808 31736 ft 504 kts 356°
2026-05-07 22:13 35.33104 -84.14959 32143 ft 503 kts 356°
2026-05-07 22:13 35.36532 -84.14114 32482 ft 504 kts 356°
2026-05-07 22:13 35.39972 -84.13267 32842 ft 503 kts 356°
2026-05-07 22:13 35.43403 -84.12420 33213 ft 503 kts 356°
2026-05-07 22:14 35.46828 -84.11572 33590 ft 502 kts 355°
2026-05-07 22:14 35.50249 -84.10725 33933 ft 501 kts 355°
2026-05-07 22:14 35.53661 -84.09880 34288 ft 500 kts 355°
2026-05-07 22:14 35.57068 -84.09035 34617 ft 499 kts 355°
2026-05-07 22:15 35.60471 -84.08191 34944 ft 498 kts 355°
2026-05-07 22:15 35.63865 -84.07349 35258 ft 498 kts 355°
2026-05-07 22:15 35.67262 -84.06505 35562 ft 497 kts 355°
2026-05-07 22:15 35.70652 -84.05662 35853 ft 496 kts 355°
2026-05-07 22:16 35.74037 -84.04821 36128 ft 496 kts 355°
2026-05-07 22:16 35.77421 -84.03978 36406 ft 495 kts 355°
2026-05-07 22:16 35.80797 -84.03136 36679 ft 495 kts 355°
2026-05-07 22:16 35.84163 -84.02294 36928 ft 493 kts 355°
2026-05-07 22:17 35.90841 -84.00465 36987 ft 501 kts
2026-05-07 22:17 35.94110 -83.98878 36997 ft 512 kts 10°
2026-05-07 22:17 35.97306 -83.96817 37007 ft 524 kts 15°
2026-05-07 22:18 36.06817 -83.89579 37013 ft 541 kts 18°
2026-05-07 22:19 36.13247 -83.84768 37010 ft 539 kts 17°
2026-05-07 22:19 36.19711 -83.80112 37011 ft 537 kts 16°
2026-05-07 22:20 36.26181 -83.75502 37012 ft 536 kts 16°
2026-05-07 22:20 36.32636 -83.70883 37016 ft 536 kts 17°
2026-05-07 22:21 36.39087 -83.66239 37019 ft 536 kts 17°
2026-05-07 22:21 36.45542 -83.61575 37019 ft 536 kts 17°
2026-05-07 22:22 36.50893 -83.57702 37018 ft 536 kts 17°
2026-05-07 22:22 36.58383 -83.52274 37017 ft 536 kts 17°
2026-05-07 22:23 36.64836 -83.47591 37018 ft 537 kts 17°
2026-05-07 22:23 36.70251 -83.43653 37017 ft 538 kts 17°
2026-05-07 22:24 36.76665 -83.38974 37016 ft 537 kts 18°
2026-05-07 22:24 36.83111 -83.34252 37017 ft 537 kts 18°
2026-05-07 22:25 36.89560 -83.29513 37018 ft 537 kts 18°
2026-05-07 22:25 36.95997 -83.24773 37019 ft 537 kts 18°
2026-05-07 22:26 37.02434 -83.20027 37019 ft 537 kts 18°
2026-05-07 22:26 37.08871 -83.15271 37020 ft 537 kts 18°
2026-05-07 22:27 37.15307 -83.10507 37021 ft 537 kts 18°
2026-05-07 22:27 37.21740 -83.05735 37022 ft 537 kts 18°
2026-05-07 22:28 37.28164 -83.01084 37024 ft 535 kts 15°
2026-05-07 22:28 37.34739 -82.96753 37021 ft 531 kts 14°
2026-05-07 22:29 37.41307 -82.92534 37019 ft 530 kts 14°
2026-05-07 22:29 37.47860 -82.88271 37016 ft 530 kts 14°
2026-05-07 22:30 37.54409 -82.83955 37012 ft 531 kts 14°
2026-05-07 22:30 37.60957 -82.79624 37007 ft 531 kts 14°
2026-05-07 22:31 37.67495 -82.75297 37002 ft 531 kts 14°
2026-05-07 22:31 37.74042 -82.70961 37006 ft 531 kts 14°
2026-05-07 22:32 37.80586 -82.66617 37008 ft 531 kts 14°
2026-05-07 22:32 37.87128 -82.62267 37009 ft 532 kts 14°
2026-05-07 22:33 37.93645 -82.57923 37008 ft 532 kts 14°
2026-05-07 22:33 38.00199 -82.53547 37003 ft 533 kts 15°
2026-05-07 22:34 38.06764 -82.49154 36997 ft 533 kts 15°
2026-05-07 22:34 38.13338 -82.44738 36992 ft 533 kts 15°
2026-05-07 22:35 38.19897 -82.40326 36990 ft 534 kts 15°
2026-05-07 22:35 38.26461 -82.35903 36989 ft 534 kts 15°
2026-05-07 22:36 38.33027 -82.31470 36989 ft 534 kts 15°
2026-05-07 22:36 38.39542 -82.27062 36989 ft 534 kts 15°
2026-05-07 22:37 38.46094 -82.22620 36991 ft 533 kts 15°
2026-05-07 22:37 38.52648 -82.18166 36990 ft 533 kts 15°
2026-05-07 22:38 38.59194 -82.13709 36988 ft 533 kts 15°
2026-05-07 22:38 38.65740 -82.09243 36987 ft 532 kts 16°
2026-05-07 22:39 38.72267 -82.04781 36982 ft 532 kts 16°
2026-05-07 22:39 38.78672 -81.99925 36977 ft 538 kts 23°
2026-05-07 22:40 38.84764 -81.94213 36982 ft 546 kts 27°
2026-05-07 22:40 38.90822 -81.88262 36983 ft 548 kts 27°
2026-05-07 22:41 38.96916 -81.82388 36980 ft 547 kts 26°
2026-05-07 22:41 39.03024 -81.76616 36814 ft 551 kts 26°
2026-05-07 22:41 39.06122 -81.73702 36366 ft 552 kts 26°
2026-05-07 22:42 39.09234 -81.70769 35612 ft 556 kts 26°
2026-05-07 22:42 39.12373 -81.67806 34643 ft 562 kts 26°
2026-05-07 22:42 39.15533 -81.64815 33848 ft 564 kts 26°
2026-05-07 22:42 39.18688 -81.61813 33114 ft 563 kts 27°
2026-05-07 22:43 39.21835 -81.58812 32340 ft 563 kts 27°
2026-05-07 22:43 39.24980 -81.55810 31580 ft 562 kts 28°
2026-05-07 22:43 39.28123 -81.52808 30818 ft 561 kts 28°
2026-05-07 22:43 39.31259 -81.49809 30058 ft 559 kts 28°
2026-05-07 22:44 39.34368 -81.46833 29305 ft 556 kts 28°
2026-05-07 22:44 39.37474 -81.43858 28554 ft 553 kts 29°
2026-05-07 22:44 39.40553 -81.40905 27810 ft 550 kts 29°
2026-05-07 22:44 39.43617 -81.37964 27068 ft 546 kts 29°
2026-05-07 22:45 39.46649 -81.35053 26336 ft 540 kts 30°
2026-05-07 22:45 39.49650 -81.32170 25610 ft 534 kts 30°
2026-05-07 22:45 39.52621 -81.29315 24891 ft 527 kts 30°
2026-05-07 22:45 39.55553 -81.26495 24072 ft 522 kts 30°
2026-05-07 22:46 39.58419 -81.23737 23405 ft 514 kts 30°
2026-05-07 22:46 39.61262 -81.20997 22709 ft 506 kts 30°
2026-05-07 22:46 39.64106 -81.18253 22020 ft 499 kts 30°
2026-05-07 22:46 39.66837 -81.15616 21358 ft 491 kts 30°
2026-05-07 22:47 39.69562 -81.12983 20697 ft 484 kts 31°
2026-05-07 22:47 39.72244 -81.10389 20046 ft 477 kts 31°
2026-05-07 22:47 39.74882 -81.07834 19405 ft 469 kts 31°
2026-05-07 22:47 39.77481 -81.05316 18775 ft 462 kts 31°
2026-05-07 22:48 39.80041 -81.02833 18153 ft 456 kts 31°
2026-05-07 22:48 39.82569 -81.00379 17559 ft 449 kts 31°
2026-05-07 22:48 39.85041 -80.97975 17060 ft 440 kts 31°
2026-05-07 22:48 39.87483 -80.95599 16436 ft 435 kts 31°
2026-05-07 22:49 39.89893 -80.93254 15854 ft 429 kts 32°
2026-05-07 22:49 39.92267 -80.90942 15276 ft 423 kts 32°
2026-05-07 22:49 39.94608 -80.88658 14705 ft 418 kts 32°
2026-05-07 22:49 39.96916 -80.86406 14144 ft 412 kts 32°
2026-05-07 22:50 39.99200 -80.84173 13588 ft 407 kts 32°
2026-05-07 22:50 40.01440 -80.81956 13070 ft 402 kts 34°
2026-05-07 22:50 40.03536 -80.79592 12592 ft 397 kts 39°
2026-05-07 22:50 40.05518 -80.77104 12038 ft 393 kts 41°
2026-05-07 22:51 40.07438 -80.74605 11513 ft 388 kts 42°
2026-05-07 22:51 40.09336 -80.72144 10992 ft 383 kts 41°
2026-05-07 22:51 40.11230 -80.69727 10482 ft 377 kts 41°
2026-05-07 22:51 40.13097 -80.67358 10166 ft 367 kts 42°
2026-05-07 22:52 40.14857 -80.65043 10052 ft 351 kts 43°
2026-05-07 22:52 40.16512 -80.62810 10018 ft 333 kts 43°
2026-05-07 22:52 40.18063 -80.60704 10007 ft 317 kts 43°
2026-05-07 22:52 40.19579 -80.58658 10008 ft 304 kts 43°
2026-05-07 22:53 40.21035 -80.56712 10020 ft 303 kts 43°
2026-05-07 22:53 40.22517 -80.54739 10018 ft 304 kts 43°
2026-05-07 22:53 40.23993 -80.52766 10017 ft 304 kts 43°
2026-05-07 22:53 40.25467 -80.50791 10019 ft 304 kts 43°
2026-05-07 22:54 40.26850 -80.48689 10012 ft 305 kts 52°
2026-05-07 22:54 40.27932 -80.46306 10025 ft 306 kts 61°
2026-05-07 22:54 40.28859 -80.43790 10024 ft 307 kts 63°
2026-05-07 22:54 40.29784 -80.41256 10021 ft 307 kts 62°
2026-05-07 22:55 40.30747 -80.38755 10019 ft 307 kts 61°
2026-05-07 22:55 40.31735 -80.36276 10019 ft 307 kts 60°
2026-05-07 22:55 40.32725 -80.33805 10018 ft 307 kts 61°
2026-05-07 22:55 40.33712 -80.31323 10016 ft 307 kts 61°
2026-05-07 22:56 40.34695 -80.28834 10015 ft 308 kts 61°
2026-05-07 22:56 40.35678 -80.26330 10013 ft 308 kts 61°
2026-05-07 22:56 40.36655 -80.23835 10009 ft 307 kts 61°
2026-05-07 22:56 40.37630 -80.21356 10002 ft 306 kts 61°
2026-05-07 22:57 40.38609 -80.18876 10001 ft 306 kts 61°
2026-05-07 22:57 40.39567 -80.16370 9992 ft 307 kts 65°
2026-05-07 22:57 40.40145 -80.13703 10013 ft 307 kts 77°
2026-05-07 22:57 40.40720 -80.11023 9784 ft 300 kts 72°
2026-05-07 22:58 40.41367 -80.08430 8964 ft 298 kts 71°
2026-05-07 22:58 40.42027 -80.05881 8249 ft 292 kts 70°
2026-05-07 22:58 40.42679 -80.03374 7507 ft 289 kts 70°
2026-05-07 22:58 40.43321 -80.00895 6747 ft 285 kts 70°
2026-05-07 22:59 40.43953 -79.98450 6237 ft 279 kts 70°
2026-05-07 22:59 40.44554 -79.96107 5932 ft 262 kts 70°
2026-05-07 22:59 40.45118 -79.93892 5569 ft 249 kts 70°
2026-05-07 22:59 40.45689 -79.91799 5144 ft 240 kts 61°
2026-05-07 23:00 40.46736 -79.90195 4552 ft 232 kts 30°
2026-05-07 23:00 40.48243 -79.89558 4236 ft 229 kts 359°
2026-05-07 23:00 40.49742 -79.90043 4075 ft 219 kts 327°
2026-05-07 23:00 40.50756 -79.91453 4007 ft 212 kts 296°
2026-05-07 23:01 40.50998 -79.93317 3986 ft 207 kts 264°
2026-05-07 23:01 40.50607 -79.95085 4025 ft 200 kts 252°
2026-05-07 23:01 40.50137 -79.96798 3995 ft 200 kts 256°
2026-05-07 23:01 40.49859 -79.98594 4003 ft 199 kts 264°
2026-05-07 23:02 40.49734 -80.00396 4008 ft 198 kts 268°
2026-05-07 23:02 40.49690 -80.02213 4011 ft 197 kts 270°
2026-05-07 23:02 40.49687 -80.03981 3938 ft 190 kts 271°
2026-05-07 23:02 40.49706 -80.05694 3775 ft 187 kts 272°
2026-05-07 23:03 40.49737 -80.07379 3566 ft 186 kts 272°
2026-05-07 23:03 40.49773 -80.09072 3333 ft 185 kts 272°
2026-05-07 23:03 40.49813 -80.10759 3105 ft 181 kts 273°
2026-05-07 23:03 40.49852 -80.12378 2873 ft 175 kts 273°
2026-05-07 23:04 40.49892 -80.13948 2622 ft 167 kts 274°
2026-05-07 23:04 40.49927 -80.15377 2407 ft 144 kts 274°
2026-05-07 23:04 40.49957 -80.16614 2217 ft 132 kts 276°
2026-05-07 23:04 40.49991 -80.17825 2070 ft 134 kts 278°
2026-05-07 23:05 40.50024 -80.19052 1885 ft 134 kts 276°
2026-05-07 23:05 40.50054 -80.20265 1710 ft 132 kts 277°
2026-05-07 23:05 40.50092 -80.21479 1557 ft 134 kts 277°
2026-05-07 23:05 40.50111 -80.22702 1438 ft 135 kts 278°
2026-05-07 23:06 40.50148 -80.23933 1235 ft 132 kts 275°
2026-05-07 23:06 40.50178 -80.24981 1214 ft 89 kts 272°
2026-05-07 23:06 40.50189 -80.25522 1214 ft 29 kts 251°
2026-05-07 23:06 40.50136 -80.25632 1214 ft 2 kts 226°
2026-05-07 23:08 40.50134 -80.25634 1214 ft 2 kts 221°
2026-05-07 23:08 40.50099 -80.25646 1214 ft 8 kts 167°
2026-05-07 23:08 40.50082 -80.25557 1214 ft 14 kts 88°
2026-05-07 23:08 40.50084 -80.25412 1214 ft 18 kts 88°
2026-05-07 23:09 40.50086 -80.25235 1214 ft 20 kts 100°
2026-05-07 23:09 40.50073 -80.25036 1214 ft 24 kts 90°
2026-05-07 23:09 40.50034 -80.24849 1214 ft 19 kts 167°
2026-05-07 23:09 40.49895 -80.24804 1214 ft 23 kts 135°
2026-05-07 23:10 40.49784 -80.24647 1214 ft 20 kts 154°
2026-05-07 23:10 40.49720 -80.24678 1214 ft 6 kts 225°
2026-05-07 23:10 40.49717 -80.24682 1214 ft 0 kts 224°